This demonstration page uses our WeatherBlox Daily Observations layout. Learn more.

Left ArrowRight Arrow

31.84235, -102.49876

Hourly Observations for May 29, 2022

Temp ( °F °C ) Dew Point ( °F °C ) Humidity (%) Winds ( mph kmh ) Pressure ( in mb ) Visibility ( mi km ) Precip ( " mm )
12:53 am 00:53 Clear 85 29.4 55 12.8 36 36 S 22 35 29.55 1001 10 16 0.00 0.00
1:53 am 01:53 Clear 84 28.9 54 12.2 36 36 S 24 39 29.55 1001 10 16 0.00 0.00
2:53 am 02:53 Clear 82 27.8 53 11.7 37 37 S 17 28 29.53 1000 10 16 0.00 0.00
3:53 am 03:53 Clear 80 26.7 54 12.2 41 41 S 20 31 29.52 1000 10 16 0.00 0.00
4:53 am 04:53 Clear 79 26.1 56 13.3 45 45 S 23 37 29.52 1000 10 16 0.00 0.00
5:53 am 05:53 Clear 77 25 57 13.9 50 50 S 18 30 29.54 1000 10 16 0.00 0.00
6:53 am 06:53 Sunny 75 23.9 58 14.4 55 55 SSW 16 26 29.55 1001 10 16 0.00 0.00
7:53 am 07:53 Sunny 75 23.9 59 15 58 58 SSW 16 26 29.56 1001 10 16 0.00 0.00
8:53 am 08:53 Sunny 78 25.6 62 16.7 58 58 SSW 16 26 29.57 1001 10 16 0.00 0.00
9:53 am 09:53 Sunny 82 27.8 61 16.1 49 49 SSW 16 26 29.56 1001 10 16 0.00 0.00
10:53 am 10:53 Sunny 87 30.6 59 15 39 39 SSW 17 28 29.56 1001 10 16 0.00 0.00
11:53 am 11:53 Sunny 91 32.8 49 9.4 24 24 SW 13 20 29.53 1000 10 16 0.00 0.00
12:53 pm 12:53 Sunny 94 34.4 41 5 16 16 SW 13 20 29.51 999 10 16 0.00 0.00
1:53 pm 13:53 Sunny 97 36.1 40 4.4 14 14 SW 17 28 29.48 998 10 16 0.00 0.00
2:53 pm 14:53 Sunny 100 37.8 35 1.7 10 10 SW 21 33 29.44 997 10 16 0.00 0.00
3:53 pm 15:53 Sunny 102 38.9 34 1.1 9 9 SSW 16 26 29.40 996 10 16 0.00 0.00
4:53 pm 16:53 Sunny 101 38.3 47 8.3 16 16 SSW 18 30 29.37 995 10 16 0.00 0.00
5:53 pm 17:53 Sunny 100 37.8 50 10 18 18 S 22 35 29.34 994 10 16 0.00 0.00
6:53 pm 18:53 Sunny 101 38.3 48 8.9 17 17 S 23 37 29.32 993 10 16 0.00 0.00
7:53 pm 19:53 Sunny 98 36.7 51 10.6 20 20 S 24 39 29.33 993 8 13 0.00 0.00
8:53 pm 20:53 Clear 93 33.9 53 11.7 26 26 S 22 35 29.38 995 8 13 0.00 0.00
9:53 pm 21:53 Clear 90 32.2 53 11.7 28 28 S 21 33 29.41 996 10 16 0.00 0.00
10:53 pm 22:53 Clear 88 31.1 51 10.6 28 28 S 17 28 29.43 997 10 16 0.00 0.00
11:53 pm 23:53 Clear 87 30.6 48 8.9 26 26 S 23 37 29.44 997 10 16 0.00 0.00

Powered by AerisWeather